[Iaude] MPEC L60: 2018 LP3 [a=1.20,e=0.30,i=9.0,H=25.7]

mpec at mpcdb1.cfa.harvard.edu mpec at mpcdb1.cfa.harvard.edu
Tue Jun 12 09:55:30 EDT 2018


M.P.E.C. 2018-L60                                Issued 2018 June 12, 13:50 UT
 
     The Minor Planet Electronic Circulars contain information on unusual
         minor planets and routine data on comets.  They are published
    on behalf of Division F of the International Astronomical Union by the
          Minor Planet Center, Smithsonian Astrophysical Observatory,
                          Cambridge, MA 02138, U.S.A.

             Prepared using the Tamkin Foundation Computer Network

                              MPC at CFA.HARVARD.EDU
            URL https://www.minorplanetcenter.net/    ISSN 1523-6714


                                   2018 LP3
 
Observations:
     K18L03P KC2018 06 05.37424915 21 13.950-15 44 00.96         20.6 GVEL060F51
     K18L03P  C2018 06 06.37362715 15 22.049-11 17 58.07         20.0 GVEL060F51
     K18L03P  C2018 06 06.39652015 15 11.482-11 11 15.81               VEL060F51
     K18L03P* C2018 06 10.27010 14 41 12.23 +15 55 43.0                UEL060G96
     K18L03P  C2018 06 10.27533 14 41 07.94 +15 58 34.2          19.6 GUEL060G96
     K18L03P  C2018 06 10.28057 14 41 03.58 +16 01 25.6                UEL060G96
     K18L03P  C2018 06 10.28583 14 40 59.33 +16 04 17.5                UEL060G96
     K18L03P  C2018 06 10.29336 14 40 53.08 +16 08 28.8          20.1 GUEL060G96
     K18L03P  C2018 06 10.29349 14 40 52.97 +16 08 33.5          20.1 GUEL060G96
     K18L03P  C2018 06 10.29363 14 40 52.86 +16 08 37.6          19.9 GUEL060G96
     K18L03P  C2018 06 10.29377 14 40 52.77 +16 08 42.1          20.0 GUEL060G96
     K18L03P  C2018 06 10.36080 14 39 58.24 +16 45 34.4          19.5 GUEL060I52
     K18L03P  C2018 06 10.36135 14 39 57.79 +16 45 52.8          19.7 GUEL060I52
     K18L03P  C2018 06 10.36190 14 39 57.38 +16 46 10.3          19.2 GUEL060I52
     K18L03P  C2018 06 10.36245 14 39 56.94 +16 46 28.6          19.7 GUEL060I52
     K18L03P  C2018 06 10.39021 14 39 34.89 +17 01 46.2          20.2 GUEL060G96
     K18L03P  C2018 06 10.39044 14 39 34.68 +17 01 54.0          20.2 GUEL060G96
     K18L03P  C2018 06 10.39067 14 39 34.55 +17 02 03.5          19.4 GUEL060G96
     K18L03P  C2018 06 10.39090 14 39 34.35 +17 02 09.3          19.3 GUEL060G96
     K18L03P KC2018 06 10.85548814 33 47.28 +21 26 51.4          20.1 VUEL060L01
     K18L03P IC2018 06 10.85740314 33 45.46 +21 27 57.4          19.8 VUEL060L01
     K18L03P IC2018 06 10.85930814 33 43.71 +21 29 05.0          20.0 VUEL060L01
     K18L03P KC2018 06 10.86167714 33 41.56 +21 30 26.6          20.3 VUEL060L01
     K18L03P KC2018 06 10.98902814 31 49.11 +22 44 01.5                VEL060J95
     K18L03P KC2018 06 10.99144514 31 46.92 +22 45 26.0          19.8 GVEL060J95
     K18L03P  C2018 06 11.16587 14 29 28.61 +24 29 52.4          19.8 GUEL060I52
     K18L03P  C2018 06 11.16659 14 29 27.91 +24 30 18.0          19.8 GUEL060I52
     K18L03P  C2018 06 11.16731 14 29 27.19 +24 30 43.6          20.3 GUEL060I52
     K18L03P  C2018 06 11.16803 14 29 26.48 +24 31 09.3          19.7 GUEL060I52
     K18L03P KC2018 06 12.02591614 15 29.36 +33 01 50.3                VEL060J95
     K18L03P KC2018 06 12.02779514 15 27.28 +33 02 56.1                VEL060J95
     K18L03P KC2018 06 12.03022014 15 24.55 +33 04 22.2          19.6 GVEL060J95
     K18L03P  C2018 06 12.24230 14 11 40.19 +35 13 22.4          20.2 GUEL060I52
     K18L03P  C2018 06 12.24339 14 11 38.84 +35 14 01.2          20.1 GUEL060I52
     K18L03P  C2018 06 12.24449 14 11 37.49 +35 14 39.6          19.9 GUEL060I52
     K18L03P  C2018 06 12.24558 14 11 36.16 +35 15 18.3          20.1 GUEL060I52
 
Observer details:
F51 Pan-STARRS 1, Haleakala.  Observers J. Bulger, T. Lowe, A. Schultz,
    M. Willman.  Measurers K. Chambers, S. Chastel, L. Denneau, H. Flewelling,
    M. Huber, E. Magnier, Y. Ramanjooloo, R. Wainscoat, C. Waters, R. Weryk.
    1.8-m Ritchey-Chretien + CCD.
G96 Mt. Lemmon Survey.  Observer R. A. Kowalski.  Measurers B. M. Africano,
    E. J. Christensen, D. C. Fuls, A. R. Gibbs, A. D. Grauer, H. Groeller,
    J. A. Johnson, R. A. Kowalski, S. M. Larson, G. J. Leonard, R. L. Seaman,
    F. C. Shelly.  1.5-m reflector + 10K CCD.
I52 Steward Observatory, Mt. Lemmon Station.  Observers D. C. Fuls,
    B. M. Africano.  Measurers B. M. Africano, E. J. Christensen, D. C. Fuls,
    A. R. Gibbs, A. D. Grauer, H. Groeller, J. A. Johnson, R. A. Kowalski,
    S. M. Larson, G. J. Leonard, R. L. Seaman, F. C. Shelly.  1.0-m reflector
    + CCD.
J95 Great Shefford.  Observer P. Birtwhistle.  0.40-m f/6.0 Schmidt-Cassegrain
    + CCD.
L01 Visnjan Observatory, Tican.  Observers K. Korlevic, G. Kervina.  Measurer
    K. Korlevic.  1.0-m f/2.9 reflector + CCD.
 
Orbital elements:
2018 LP3                                                 Earth MOID = 0.0219 AU
Epoch 2018 Mar. 23.0 TT = JDT 2458200.5                 MPC
M 253.87285              (2000.0)            P               Q
n   0.74812788     Peri.   83.54107     +0.90391376     +0.40105198
a   1.2017630      Node   252.73304     -0.42738842     +0.83334520
e   0.2964117      Incl.    8.95548     -0.01670494     +0.38038544
P   1.32           H   25.7           G   0.15           U   6
Residuals in seconds of arc
180605 F51  0.0   0.3+    180610 I52  0.1+  0.5+    180610 J95  0.5+  0.6+
180606 F51  0.0   0.1+    180610 I52  0.6+  0.2-    180611 I52  0.0   0.2-
180606 F51  0.2+  0.4-    180610 I52  0.6+  0.1-    180611 I52  0.2+  0.2-
180610 G96  0.7-  1.1+    180610 G96  0.4+  0.2-    180611 I52  0.1+  0.2-
180610 G96  0.2-  0.0     180610 G96  0.0   0.0     180611 I52  0.1+  0.1-
180610 G96  0.6-  1.3-    180610 G96  0.7+  1.9+    180612 J95  0.1+  0.5+
180610 G96  0.7+  2.8-    180610 G96  0.5+  0.1+    180612 J95  0.2+  0.2-
180610 G96  0.1+  0.2+    180610 L01  1.2+  0.3+    180612 J95  0.4-  0.1+
180610 G96  0.0   0.6+    180610 L01  0.2+  0.4-    180612 I52  0.7+  0.0
180610 G96  0.1+  0.1+    180610 L01  0.1+  0.9+    180612 I52  0.5+  0.2+
180610 G96  0.5+  0.0     180610 L01  0.4+  0.0     180612 I52  0.5+  0.3-
180610 I52  0.3+  0.2+    180610 J95  0.3+  0.4+    180612 I52  0.6+  0.1-

Ephemeris:
2018 LP3                 a,e,i = 1.20, 0.30, 9                   q = 0.8455
Date    TT    R. A. (2000) Decl.     Delta      r     Elong.  Phase     V
2018 05 13    16 09 17.4 -41 02 35   0.1740  1.1700   154.7    21.6    23.3
...
2018 05 28    15 50 30.1 -33 45 57   0.08660 1.0976   166.2    12.7    21.3
...
2018 06 05    15 23 14.2 -17 09 51   0.04721 1.0587   158.8    20.3    20.2
...
2018 06 11    14 31 48.5 +22 52 36   0.02912 1.0299   119.2    59.4    20.2
2018 06 12    14 16 09.7 +32 48 10   0.02861 1.0251   109.0    69.5    20.5
2018 06 13    13 56 36.3 +42 34 49   0.02907 1.0204    98.7    79.6    20.8
...
2018 06 19    09 39 55.3 +72 57 08   0.04657 0.9925    58.4   119.3    23.8
...
2018 06 27    06 06 12.8 +66 45 05   0.08419 0.9572    43.5   133.0    26.3
...
2018 07 12    05 18 08.7 +56 48 25   0.1652  0.9000    41.7   131.3    27.4

A. U. Tomatic                (C) Copyright 2018 MPC           M.P.E.C. 2018-L60



More information about the Iaude mailing list